FW0063 Weather Reports


time (UTC)temp
C
wind
direction
speed
KPH
gust
KPH
rain 1hr
cm
rain 24hr
cm
rain mn
cm
humidity
%
barometer
mb
20260507072847 16 306 3.2 6.4 0.00 0.00 0.00 81 1019.3
20260507072343 16 306 4.8 6.4 0.00 0.00 0.00 80 1019.3
20260507071903 16 317 4.8 4.8 0.00 0.00 0.00 80 1019.3
20260507071341 16 317 3.2 4.8 0.00 0.00 0.00 80 1019.3
20260507070857 16 317 0.0 4.8 0.00 0.00 0.00 79 1019.3
20260507070401 16 334 0.0 4.8 0.00 0.00 0.00 79 1019.4
20260507065836 16 335 0.0 6.4 0.00 0.00 0.00 79 1019.4
20260507065335 16 335 3.2 6.4 0.00 0.00 0.00 79 1019.4
20260507064836 16 307 3.2 4.8 0.00 0.00 0.00 79 1019.6
20260507064334 16 298 0.0 3.2 0.00 0.00 0.00 79 1019.6
20260507063849 16 296 1.6 4.8 0.00 0.00 0.00 79 1019.6
20260507063326 16 298 1.6 4.8 0.00 0.00 0.00 79 1019.7
20260507062826 16 315 1.6 8.0 0.00 0.00 0.00 78 1019.6
20260507062327 16 317 3.2 8.0 0.00 0.00 0.00 78 1019.6
20260507061825 16 306 4.8 8.0 0.00 0.00 0.00 78 1019.6
20260507061340 16 313 4.8 9.7 0.00 0.00 0.00 77 1019.5
20260507060840 16 313 4.8 9.7 0.00 0.00 0.00 77 1019.6
20260507060339 16 281 3.2 6.4 0.00 0.00 0.00 77 1019.5
20260507055856 16 344 3.2 9.7 0.00 0.00 0.00 76 1019.6
20260507055333 16 300 4.8 14.5 0.00 0.00 0.00 76 1019.5
20260507054834 16 317 6.4 12.9 0.00 0.00 0.00 76 1019.5
20260507054330 16 303 6.4 11.3 0.00 0.00 0.00 76 1019.5
20260507053828 16 313 4.8 14.5 0.00 0.00 0.00 75 1019.4
20260507053327 17 306 6.4 14.5 0.00 0.00 0.00 74 1019.4
20260507052847 17 304 9.7 12.9 0.00 0.00 0.00 74 1019.4
20260507052403 17 300 8.0 12.9 0.00 0.00 0.00 72 1019.4
20260507051838 17 290 6.4 11.3 0.00 0.00 0.00 72 1019.4
20260507051338 17 295 6.4 9.7 0.00 0.00 0.00 71 1019.3
20260507050837 17 294 3.2 9.7 0.00 0.00 0.00 71 1019.4
20260507050337 17 304 4.8 8.0 0.00 0.00 0.00 71 1019.4
20260507045833 17 308 4.8 9.7 0.00 0.00 0.00 70 1019.4
20260507045331 17 303 3.2 9.7 0.00 0.00 0.00 70 1019.4
20260507044830 17 311 8.0 9.7 0.00 0.00 0.00 70 1019.4
20260507044325 17 283 6.4 11.3 0.00 0.00 0.00 70 1019.3
20260507043844 17 288 9.7 12.9 0.00 0.00 0.00 70 1019.4
20260507043341 17 303 4.8 16.1 0.00 0.00 0.00 70 1019.4
20260507042842 17 309 11.3 16.1 0.00 0.00 0.00 70 1019.3
20260507042338 17 313 9.7 14.5 0.00 0.00 0.00 70 1019.3
20260507041838 17 304 8.0 11.3 0.00 0.00 0.00 70 1019.2
20260507041333 17 302 8.0 14.5 0.00 0.00 0.00 70 1019.3
20260507040833 17 299 9.7 14.5 0.00 0.00 0.00 70 1019.1
20260507040334 18 314 12.9 16.1 0.00 0.00 0.00 70 1019.2
20260507035829 18 290 9.7 16.1 0.00 0.00 0.00 69 1019.0
20260507035328 18 304 11.3 16.1 0.00 0.00 0.00 69 1019.0
20260507034829 18 309 11.3 17.7 0.00 0.00 0.00 68 1018.8
20260507034344 18 306 12.9 17.7 0.00 0.00 0.00 68 1018.8
20260507033841 18 308 12.9 17.7 0.00 0.00 0.00 67 1018.8
20260507033340 18 308 12.9 19.3 0.00 0.00 0.00 67 1018.9
20260507032840 18 309 11.3 19.3 0.00 0.00 0.00 67 1018.7
20260507032338 18 321 11.3 17.7 0.00 0.00 0.00 66 1018.6
20260507031836 18 311 12.9 17.7 0.00 0.00 0.00 65 1018.6
20260507031329 18 306 12.9 16.1 0.00 0.00 0.00 64 1018.5
20260507030828 18 360 12.9 19.3 0.00 0.00 0.00 64 1018.5
20260507030346 19 313 16.1 19.3 0.00 0.00 0.00 63 1018.5
20260507025843 19 298 11.3 19.3 0.00 0.00 0.00 63 1018.5
20260507025342 19 297 12.9 19.3 0.00 0.00 0.00 62 1018.4
20260507024837 19 303 11.3 17.7 0.00 0.00 0.00 62 1018.3
20260507024338 19 302 12.9 17.7 0.00 0.00 0.00 62 1018.3
20260507023856 19 307 12.9 19.3 0.00 0.00 0.00 62 1018.2
20260507023356 20 303 12.9 19.3 0.00 0.00 0.00 62 1018.2
20260507022835 20 301 14.5 19.3 0.00 0.00 0.00 62 1018.1
20260507022334 20 298 12.9 20.9 0.00 0.00 0.00 62 1018.0
20260507021829 20 312 14.5 20.9 0.00 0.00 0.00 61 1018.0
20260507021327 20 311 12.9 19.3 0.00 0.00 0.00 61 1018.0
20260507020825 20 301 12.9 20.9 0.00 0.00 0.00 61 1017.9
20260507020341 20 299 16.1 20.9 0.00 0.00 0.00 61 1017.9
20260507015836 20 322 12.9 20.9 0.00 0.00 0.00 61 1017.9
20260507015337 20 302 14.5 19.3 0.00 0.00 0.00 60 1017.8
20260507014832 21 271 6.4 17.7 0.00 0.00 0.00 61 1017.8
20260507014331 21 277 12.9 17.7 0.00 0.00 0.00 61 1017.8
20260507013827 21 178 11.3 20.9 0.00 0.00 0.00 60 1017.9
20260507013327 21 221 8.0 17.7 0.00 0.00 0.00 60 1017.7
20260507012845 21 196 11.3 27.4 0.00 0.00 0.00 60 1017.7
20260507012339 21 218 11.3 27.4 0.00 0.00 0.00 59 1017.7
20260507011840 21 246 17.7 25.7 0.00 0.00 0.00 58 1017.6
20260507011336 21 182 16.1 22.5 0.00 0.00 0.00 58 1017.5
20260507010855 21 204 11.3 24.1 0.00 0.00 0.00 58 1017.4
20260507010352 21 223 16.1 27.4 0.00 0.00 0.00 58 1017.5
20260507005829 21 269 12.9 27.4 0.00 0.00 0.00 58 1017.5
20260507005324 21 207 11.3 24.1 0.00 0.00 0.00 58 1017.5
20260507004843 21 250 17.7 24.1 0.00 0.00 0.00 58 1017.6
20260507004343 21 298 14.5 25.7 0.00 0.00 0.00 58 1017.6
20260507003903 21 252 14.5 25.7 0.00 0.00 0.00 58 1017.4
20260507003402 21 205 8.0 22.5 0.00 0.00 0.00 58 1017.6
20260507002834 21 301 14.5 22.5 0.00 0.00 0.00 57 1017.5
20260507002334 22 202 12.9 25.7 0.00 0.00 0.00 57 1017.4
20260507001834 22 234 14.5 25.7 0.00 0.00 0.00 57 1017.3
20260507001331 22 205 16.1 25.7 0.00 0.00 0.00 56 1017.4
20260507000828 22 259 11.3 25.7 0.00 0.00 0.00 56 1017.4
20260507000328 22 180 14.5 25.7 0.00 0.00 0.00 56 1017.5
20260506235840 22 223 11.3 30.6 0.00 0.00 0.00 56 1017.5
20260506235337 22 232 16.1 30.6 0.00 0.00 0.00 56 1017.4
20260506234835 21 246 11.3 24.1 0.00 0.00 0.00 57 1017.4
20260506234333 21 269 12.9 24.1 0.00 0.00 0.00 56 1017.4
20260506233831 21 264 12.9 24.1 0.00 0.00 0.00 56 1017.4
20260506233343 21 275 14.5 24.1 0.00 0.00 0.00 56 1017.5
20260506232841 21 219 9.7 25.7 0.00 0.00 0.00 57 1017.3
20260506232401 21 279 14.5 25.7 0.00 0.00 0.00 57 1017.6
20260506231840 22 291 17.7 25.7 0.00 0.00 0.00 56 1017.5
20260506231358 22 269 11.3 25.7 0.00 0.00 0.00 56 1017.5
20260506230832 21 264 9.7 24.1 0.00 0.00 0.00 57 1017.5
20260506230353 22 261 14.5 22.5 0.00 0.00 0.00 57 1017.6
20260506225828 21 223 14.5 30.6 0.00 0.00 0.00 58 1017.6
20260506225326 21 306 19.3 30.6 0.00 0.00 0.00 57 1017.7
20260506224825 22 267 19.3 29.0 0.00 0.00 0.00 56 1017.7
20260506224342 22 240 8.0 25.7 0.00 0.00 0.00 56 1017.7
20260506223856 21 201 11.3 24.1 0.00 0.00 0.00 55 1017.9
20260506223335 22 299 12.9 20.9 0.00 0.00 0.00 55 1017.9
20260506222854 21 308 12.9 29.0 0.00 0.00 0.00 55 1018.0
20260506222350 21 307 17.7 29.0 0.00 0.00 0.00 55 1018.0
20260506221906 21 306 16.1 27.4 0.00 0.00 0.00 55 1018.0
20260506221341 22 213 11.3 32.2 0.00 0.00 0.00 54 1018.0
20260506220838 22 325 22.5 32.2 0.00 0.00 0.00 54 1018.2
20260506220339 22 247 12.9 27.4 0.00 0.00 0.00 55 1018.2
20260506215831 22 298 17.7 24.1 0.00 0.00 0.00 54 1018.2
20260506215325 22 289 17.7 24.1 0.00 0.00 0.00 54 1018.4
20260506214904 22 234 12.9 24.1 0.00 0.00 0.00 54 1018.2
20260506214341 22 238 12.9 22.5 0.00 0.00 0.00 53 1018.4
20260506213901 22 269 8.0 22.5 0.00 0.00 0.00 54 1018.4
20260506213336 22 262 16.1 24.1 0.00 0.00 0.00 53 1018.4
20260506212832 22 244 16.1 24.1 0.00 0.00 0.00 54 1018.5
20260506212352 22 205 11.3 19.3 0.00 0.00 0.00 55 1018.6
20260506211830 21 254 9.7 24.1 0.00 0.00 0.00 56 1018.6
20260506211348 21 221 17.7 24.1 0.00 0.00 0.00 56 1018.6
20260506210826 21 273 14.5 22.5 0.00 0.00 0.00 55 1018.9
20260506210340 22 272 17.7 20.9 0.00 0.00 0.00 55 1018.8
20260506205856 21 279 9.7 17.7 0.00 0.00 0.00 56 1018.8
20260506205354 21 217 11.3 24.1 0.00 0.00 0.00 57 1018.9
20260506204830 21 273 11.3 24.1 0.00 0.00 0.00 58 1019.1
20260506204328 21 288 12.9 22.5 0.00 0.00 0.00 57 1019.1
20260506203844 21 326 8.0 20.9 0.00 0.00 0.00 57 1019.0
20260506203343 21 266 9.7 20.9 0.00 0.00 0.00 58 1019.1
20260506202839 21 320 6.4 27.4 0.00 0.00 0.00 58 1019.1
20260506202336 21 290 17.7 27.4 0.00 0.00 0.00 57 1019.2
20260506201834 21 225 9.7 22.5 0.00 0.00 0.00 57 1019.2
20260506201333 21 296 6.4 22.5 0.00 0.00 0.00 57 1019.2
20260506200827 22 217 8.0 19.3 0.00 0.00 0.00 56 1019.3
20260506200344 22 312 8.0 14.5 0.00 0.00 0.00 55 1019.3
20260506195849 22 259 8.0 14.5 0.00 0.00 0.00 55 1019.4
20260506195327 22 209 8.0 12.9 0.00 0.00 0.00 55 1019.6
20260506194826 21 207 4.8 11.3 0.00 0.00 0.00 53 1019.6
20260506194340 21 265 4.8 17.7 0.00 0.00 0.00 54 1019.6
20260506193840 21 289 9.7 17.7 0.00 0.00 0.00 54 1019.6
20260506193338 21 309 3.2 16.1 0.00 0.00 0.00 54 1019.7
20260506192839 20 248 4.8 17.7 0.00 0.00 0.00 55 1019.7
20260506192356 20 282 12.9 20.9 0.00 0.00 0.00 55 1019.9
20260506191830 20 303 12.9 20.9 0.00 0.00 0.00 55 1019.9
20260506191329 20 286 9.7 22.5 0.00 0.00 0.00 56 1020.0
20260506190849 20 307 14.5 22.5 0.00 0.00 0.00 55 1020.1
20260506190329 20 309 4.8 17.7 0.00 0.00 0.00 55 1020.2
20260506185827 21 292 4.8 12.9 0.00 0.00 0.00 55 1020.2
20260506185345 20 262 4.8 16.1 0.00 0.00 0.00 55 1020.3
20260506184838 20 322 9.7 16.1 0.00 0.00 0.00 56 1020.3
20260506184337 20 190 4.8 20.9 0.00 0.00 0.00 56 1020.4
20260506183856 20 317 14.5 20.9 0.00 0.00 0.00 55 1020.5
20260506183336 20 311 8.0 16.1 0.00 0.00 0.00 55 1020.4
20260506182835 21 321 9.7 14.5 0.00 0.00 0.00 53 1020.4
20260506182330 21 14 4.8 12.9 0.00 0.00 0.00 55 1020.5
20260506181850 20 188 1.6 16.1 0.00 0.00 0.00 56 1020.5
20260506181326 20 185 8.0 16.1 0.00 0.00 0.00 56 1020.5
20260506180826 20 192 4.8 12.9 0.00 0.00 0.00 56 1020.5
20260506180344 20 99 4.8 12.9 0.00 0.00 0.00 55 1020.5
20260506175842 20 144 1.6 12.9 0.00 0.00 0.00 57 1020.6
20260506175336 20 121 4.8 12.9 0.00 0.00 0.00 57 1020.6
20260506174833 20 236 3.2 11.3 0.00 0.00 0.00 57 1020.6
20260506174332 19 215 4.8 14.5 0.00 0.00 0.00 58 1020.7
20260506173853 19 183 6.4 14.5 0.00 0.00 0.00 59 1020.6
20260506173333 19 270 4.8 14.5 0.00 0.00 0.00 58 1020.6
20260506172831 19 198 9.7 14.5 0.00 0.00 0.00 57 1020.7
20260506172327 20 202 3.2 11.3 0.00 0.00 0.00 58 1020.6
20260506171825 20 215 1.6 11.3 0.00 0.00 0.00 57 1020.7
20260506171324 20 256 1.6 9.7 0.00 0.00 0.00 58 1020.6
20260506170843 20 157 4.8 9.7 0.00 0.00 0.00 58 1020.7
20260506170345 20 53 0.0 9.7 0.00 0.00 0.00 60 1020.6
20260506165840 20 59 4.8 9.7 0.00 0.00 0.00 60 1020.6
20260506165334 19 116 3.2 6.4 0.00 0.00 0.00 61 1020.6
20260506164832 19 136 1.6 8.0 0.00 0.00 0.00 62 1020.6
20260506164333 18 189 0.0 8.0 0.00 0.00 0.00 63 1020.6
20260506163833 18 126 0.0 6.4 0.00 0.00 0.00 64 1020.6
20260506163330 18 124 1.6 6.4 0.00 0.00 0.00 64 1020.6
20260506162829 18 123 3.2 6.4 0.00 0.00 0.00 64 1020.7
20260506162326 18 176 0.0 9.7 0.00 0.00 0.00 66 1020.7
20260506161903 17 213 4.8 9.7 0.00 0.00 0.00 65 1020.6
20260506161340 18 194 1.6 8.0 0.00 0.00 0.00 66 1020.6
20260506160836 17 161 1.6 6.4 0.00 0.00 0.00 68 1020.6
20260506160416 17 84 0.0 8.0 0.00 0.00 0.00 69 1020.6
20260506155832 17 168 0.0 9.7 0.00 0.03 0.00 69 1020.6
20260506155330 17 168 3.2 9.7 0.00 0.03 0.00 69 1020.6
20260506154829 17 173 1.6 8.0 0.00 0.03 0.00 71 1020.6
20260506154348 17 111 0.0 4.8 0.00 0.03 0.00 72 1020.7
20260506153826 16 97 1.6 6.4 0.00 0.03 0.00 73 1020.7
20260506153343 16 78 3.2 6.4 0.00 0.03 0.00 74 1020.7
20260506152842 16 131 0.0 11.3 0.00 0.03 0.00 75 1020.8
20260506152340 16 123 1.6 11.3 0.00 0.03 0.00 78 1020.8
20260506151841 16 84 1.6 4.8 0.00 0.03 0.00 79 1020.8
20260506151337 16 104 0.0 4.8 0.00 0.03 0.00 81 1020.8
20260506150856 15 104 0.0 6.4 0.00 0.03 0.00 81 1020.7
20260506150332 15 98 1.6 6.4 0.00 0.03 0.00 82 1020.6
20260506145828 15 107 0.0 3.2 0.00 0.03 0.00 83 1020.7
20260506145328 15 104 0.0 4.8 0.00 0.03 0.00 84 1020.8
20260506144828 14 104 3.2 4.8 0.00 0.03 0.00 84 1020.8
20260506144349 14 109 1.6 4.8 0.00 0.03 0.00 85 1020.6
20260506143843 13 105 1.6 4.8 0.00 0.03 0.00 85 1020.7
20260506143340 13 105 0.0 6.4 0.00 0.03 0.00 86 1020.5
20260506142838 13 105 1.6 6.4 0.00 0.03 0.00 86 1020.5
20260506142335 13 112 3.2 6.4 0.00 0.03 0.00 86 1020.3
20260506141856 13 90 1.6 8.0 0.00 0.03 0.00 86 1020.3
20260506141331 12 360 3.2 8.0 0.00 0.03 0.00 87 1020.3
20260506140829 12 360 3.2 6.4 0.00 0.03 0.00 87 1020.3
20260506140329 12 360 1.6 6.4 0.00 0.03 0.00 87 1020.3
20260506135905 12 360 4.8 6.4 0.00 0.03 0.00 87 1020.2
20260506135343 12 360 1.6 4.8 0.00 0.03 0.00 87 1020.3
20260506134842 12 360 1.6 4.8 0.00 0.03 0.00 87 1020.3
20260506134336 12 360 3.2 4.8 0.00 0.03 0.00 87 1020.2
20260506133835 12 57 1.6 4.8 0.00 0.03 0.00 87 1020.2
20260506133336 12 55 1.6 4.8 0.00 0.03 0.00 87 1020.1
20260506132833 12 55 3.2 4.8 0.00 0.03 0.00 87 1020.1
20260506132333 12 45 3.2 4.8 0.00 0.03 0.00 87 1020.1
20260506131829 12 51 1.6 4.8 0.00 0.03 0.00 86 1020.0
20260506131325 12 65 3.2 4.8 0.00 0.03 0.00 86 1019.9
20260506130826 12 80 1.6 6.4 0.00 0.03 0.00 86 1019.8
20260506130327 12 78 3.2 6.4 0.00 0.03 0.00 86 1019.7
20260506125902 12 83 1.6 6.4 0.00 0.05 0.00 86 1019.7
20260506125340 12 82 3.2 6.4 0.00 0.05 0.00 86 1019.7
20260506124834 12 80 0.0 4.8 0.00 0.05 0.00 86 1019.7
20260506124334 12 80 0.0 4.8 0.00 0.05 0.00 86 1019.7
20260506123834 12 80 0.0 4.8 0.00 0.05 0.00 86 1019.6
20260506123333 12 80 1.6 3.2 0.00 0.05 0.00 86 1019.6
20260506122833 12 81 0.0 4.8 0.00 0.05 0.00 86 1019.6
20260506122332 12 81 1.6 4.8 0.00 0.05 0.00 86 1019.5
20260506121831 12 82 1.6 3.2 0.00 0.05 0.00 86 1019.5
20260506121328 12 82 0.0 4.8 0.00 0.05 0.00 85 1019.5
20260506120827 12 82 1.6 4.8 0.00 0.05 0.00 85 1019.5
20260506120328 12 82 1.6 4.8 0.00 0.05 0.00 85 1019.5
20260506115825 12 82 1.6 4.8 0.00 0.08 0.00 85 1019.5
20260506115345 12 84 1.6 3.2 0.00 0.08 0.00 85 1019.5
20260506114825 12 83 0.0 1.6 0.00 0.08 0.00 85 1019.4
20260506114359 12 82 0.0 0.0 0.00 0.08 0.00 85 1019.3
20260506113836 12 83 0.0 0.0 0.00 0.08 0.00 85 1019.4
20260506113336 12 83 0.0 0.0 0.00 0.08 0.00 84 1019.4
20260506112835 12 84 0.0 0.0 0.00 0.08 0.00 84 1019.3
20260506112335 13 84 0.0 0.0 0.00 0.08 0.00 85 1019.3
20260506111829 13 84 0.0 0.0 0.00 0.08 0.00 85 1019.2
20260506111346 13 84 0.0 0.0 0.00 0.08 0.00 84 1019.2
20260506110843 13 84 0.0 0.0 0.00 0.08 0.00 84 1019.2
20260506110342 13 84 0.0 0.0 0.00 0.08 0.00 84 1019.2
20260506105858 13 84 0.0 0.0 0.00 0.20 0.00 84 1019.3
20260506105332 13 84 0.0 0.0 0.00 0.20 0.00 84 1019.2
20260506104854 13 84 0.0 0.0 0.00 0.20 0.00 84 1019.3
20260506104334 13 84 0.0 0.0 0.00 0.20 0.00 84 1019.3
20260506103835 13 85 0.0 0.0 0.00 0.20 0.00 84 1019.4
20260506103353 13 85 0.0 0.0 0.00 0.20 0.00 84 1019.3
20260506102824 13 86 0.0 0.0 0.00 0.20 0.00 84 1019.3
20260506102324 13 86 0.0 0.0 0.00 0.20 0.00 84 1019.3
20260506101842 13 86 0.0 4.8 0.00 0.20 0.00 84 1019.4
20260506101341 13 86 0.0 4.8 0.00 0.20 0.00 84 1019.3
20260506100858 13 86 1.6 4.8 0.00 0.20 0.00 84 1019.4
20260506100352 13 89 1.6 4.8 0.00 0.20 0.00 84 1019.3
20260506095827 13 107 1.6 4.8 0.00 0.41 0.00 84 1019.4
20260506095325 13 107 1.6 4.8 0.00 0.41 0.00 84 1019.4
20260506094904 13 111 1.6 6.4 0.00 0.41 0.00 83 1019.4
20260506094401 13 101 1.6 4.8 0.00 0.41 0.00 83 1019.4
20260506093837 13 104 1.6 4.8 0.00 0.41 0.00 83 1019.4
20260506093337 13 113 1.6 3.2 0.00 0.41 0.00 83 1019.5
20260506092837 13 114 0.0 3.2 0.00 0.41 0.00 83 1019.6
20260506092336 13 115 0.0 3.2 0.00 0.41 0.00 82 1019.5
20260506091834 13 115 0.0 3.2 0.00 0.41 0.00 82 1019.5
20260506091331 13 115 0.0 3.2 0.00 0.41 0.00 82 1019.6
20260506090847 13 150 0.0 1.6 0.00 0.41 0.00 82 1019.7
20260506090344 13 156 0.0 1.6 0.00 0.41 0.00 82 1019.6
20260506085840 13 157 0.0 0.0 0.00 0.41 0.00 82 1019.7
20260506085339 13 157 0.0 0.0 0.00 0.41 0.00 82 1019.7
20260506084838 13 157 0.0 1.6 0.00 0.41 0.00 82 1019.7
20260506084336 13 157 0.0 3.2 0.00 0.41 0.00 82 1019.7
20260506083830 13 157 0.0 4.8 0.00 0.41 0.00 82 1019.7
20260506083332 13 157 1.6 8.0 0.00 0.41 0.00 82 1019.7
20260506082830 13 159 1.6 8.0 0.00 0.41 0.00 82 1019.8
20260506082330 14 163 3.2 6.4 0.00 0.41 0.00 82 1019.8
20260506081828 14 172 3.2 8.0 0.00 0.41 0.00 82 1019.8
20260506081329 14 162 4.8 8.0 0.00 0.41 0.00 82 1019.8
20260506080845 14 171 1.6 6.4 0.00 0.41 0.00 82 1019.9
20260506080342 14 167 1.6 8.0 0.00 0.41 0.00 82 1019.9
20260506073329 14 167 3.2 9.7 0.00 0.41 0.00 81 1019.8